Flag for U.S.A. Weather past 2 weeks in Flagstaff, Arizona, U.S.A.

Now
64 °F

Passing clouds.


Feels Like: 64 °F
Forecast: 58 / 79 °F
Wind: No wind

Location: Flagstaff Pulliam Airport

Current Time: Jul 2, 2015 at 8:14:18 PM

Latest Report: Jul 2, 2015 at 7:57 PM


Visibility: 10 mi

Pressure: 29.94 "Hg

Humidity: 73%

Dew point: 55 °F

Location of FlagstaffLocation

Historic Weather in Flagstaff — Graph

°F

Flagstaff temperature yesterday

Maximum temperature yesterday: 82 °F (at 1:57 PM)
Minimum temperature yesterday: 59 °F (at 4:57 AM)
Average temperature yesterday: 70 °F

Past Weeks' High & Low Weather Summary

 TemperatureHumidityPressure
High91 °F (Jun 26, 2:57 PM)100% (Jul 2, 5:57 AM)30.34 "Hg (Jul 2, 5:57 AM)
Low45 °F (Jun 20, 4:57 AM)8% (Jun 20, 4:57 PM)29.80 "Hg (Jun 18, 7:57 PM)
Average70 °F40%29.96 "Hg
* Reported Jun 17 7:57 PM — Jul 2 6:57 PM, Flagstaff, Weather by CustomWeather, © 2015

Note: Actual official high and low records may vary slightly from our data, if they occured in-between our weather recording intervals... More about our weather records

Advertising

Flagstaff weather history for previous 24 hours

 ConditionsComfort  
Time TempWeatherWind HumidityBarometerVisibility
6:57 PM
Thu, Jul 2
65 °FSunny.5 mph76%29.94 "Hg10 mi
5:57 PM64 °FOvercast.5 mph78%29.96 "Hg10 mi
4:57 PM73 °FOvercast.8 mph50%29.94 "Hg10 mi
3:57 PM80 °FBroken clouds.8 mph38%29.90 "Hg10 mi
2:57 PM80 °FPartly sunny.10 mph41%29.93 "Hg10 mi
1:57 PM82 °FSunny.13 mph41%29.92 "Hg10 mi
12:57 PM78 °FPartly sunny.7 mph43%29.97 "Hg10 mi
11:57 AM78 °FPassing clouds.6 mph42%29.98 "Hg10 mi
10:57 AM75 °FSunny.5 mph48%29.98 "Hg10 mi
9:57 AM74 °FSunny.7 mph53%29.98 "Hg10 mi
8:57 AM72 °FSunny.5 mph61%29.99 "Hg10 mi
7:57 AM66 °FSunny.6 mph78%29.99 "Hg10 mi
6:57 AM61 °FSunny.No wind90%29.98 "Hg10 mi
5:57 AM55 °FSunny.No wind100%30.00 "Hg10 mi
4:57 AM56 °FClear.No wind97%30.01 "Hg10 mi
3:57 AM57 °FClear.3 mph96%30.00 "Hg10 mi
2:57 AM59 °FClear.No wind93%30.00 "Hg10 mi
1:57 AM59 °FPassing clouds.No wind96%29.98 "Hg10 mi
12:57 AM60 °FPassing clouds.No wind96%30.00 "Hg10 mi
11:57 PM
Wed, Jul 1
60 °FLight rain. Overcast.6 mph93%30.01 "Hg7 mi
10:57 PM67 °FMostly cloudy.12 mph68%29.95 "Hg10 mi
9:57 PM68 °FClear.3 mph68%29.96 "Hg10 mi
8:57 PM70 °FPassing clouds.3 mph64%29.94 "Hg10 mi
Weather by CustomWeather, © 2015

See weather overviewHow to use our weather pages